Погода в Колумбии

США     34°00′02″N   81°02′06″W
темп.,
°C
ветер,
м/с
пор.,
м/с
влажн.,
%
обл.,
%
осадки,
мм/ч
давл.,
гПа
погр.,
м
16 октября, сб
сб1623:00+23зюз24734 0.0 1013127
02:00+22з26775 0.0 1012183
05:00+21зюз26795 0.0 1012176
08:00+20юз39810 0.0 1012264
11:00+27юз59574 0.0 10101049
14:00+30з71048100 0.0 10092027
17:00+27сз684324 0.0 10091564
20:00+20ссз511470 0.0 1014753
17 октября, вс
вс1723:00+16ссз411450 0.0 1017600
02:00+13с39510 0.0 1018396
05:00+11с37560 0.0 1019268
08:00+11с25570 0.0 1020167
11:00+17с35350 0.0 10211076
14:00+21сз45260 0.0 10191599
17:00+21ссз34250 0.0 10181680
20:00+16сз23380 0.0 101963
18 октября, пн
пн1823:00+13с25440 0.0 1021129
02:00+12ссв25460 0.0 1021123
05:00+10с23510 0.0 102287
08:00+10ссз12540 0.0 102359
11:00+18ссз12320 0.0 1023563
14:00+23зсз23221 0.0 10211272
17:00+23з33241 0.0 10191491
20:00+17з24405 0.0 102192
19 октября, вт
вт1923:00+15зсз22450 0.0 102264
02:00+13зсз22510 0.0 102255
05:00+12ссз22570 0.0 102355
08:00+12сз12610 0.0 102445
11:00+20з11380 0.0 1025468
14:00+24юз22250 0.0 10231276
17:00+24зюз34265 0.0 10211583
20:00+19юз22390 0.0 102235
20 октября, ср
ср2023:00+16юз254324 0.0 1023107
02:00+15зюз24485 0.0 102389
05:00+13з235114 0.0 102473
08:00+13з23545 0.0 102589
11:00+21зюз353560 0.0 1025588
14:00+25зюз4527100 0.0 10231431
17:00+25зюз3430100 0.0 10211360
20:00+20зсз1142100 0.0 102217